| time (UTC) | temp F | wind direction | speed knots | gust knots | rain 1hr in | rain 24hr in | rain mn in | humidity % | barometer mb |
| 20260505011531 | 57 | 51 | 7.0 | 15.6 | 0.00 | 0.00 | 0.00 | 42 | 1005.5 |
| 20260505010030 | 59 | 40 | 7.0 | 17.4 | 0.00 | 0.00 | 0.00 | 40 | 1005.1 |
| 20260505004529 | 62 | 80 | 3.5 | 7.0 | 0.00 | 0.00 | 0.00 | 37 | 1005.0 |
| 20260505003027 | 62 | 95 | 3.5 | 7.8 | 0.00 | 0.00 | 0.00 | 36 | 1004.9 |
| 20260505001527 | 63 | 71 | 4.3 | 12.2 | 0.00 | 0.00 | 0.00 | 36 | 1004.9 |
| 20260505000026 | 63 | 80 | 3.5 | 9.6 | 0.00 | 0.00 | 0.00 | 37 | 1005.0 |
| 20260504234524 | 63 | 324 | 3.5 | 9.6 | 0.00 | 0.00 | 0.00 | 35 | 1005.0 |
| 20260504233027 | 63 | 30 | 7.8 | 12.2 | 0.00 | 0.00 | 0.00 | 35 | 1004.9 |
| 20260504231522 | 63 | 31 | 5.2 | 12.2 | 0.00 | 0.00 | 0.00 | 35 | 1004.8 |
| 20260504230022 | 64 | 65 | 6.1 | 13.0 | 0.00 | 0.00 | 0.00 | 35 | 1004.5 |
| 20260504224527 | 63 | 26 | 6.1 | 13.0 | 0.00 | 0.00 | 0.00 | 35 | 1004.5 |
| 20260504223021 | 64 | 92 | 4.3 | 10.4 | 0.00 | 0.00 | 0.00 | 34 | 1004.4 |
| 20260504221523 | 64 | 71 | 7.0 | 13.0 | 0.00 | 0.00 | 0.00 | 34 | 1004.3 |
| 20260504220020 | 65 | 84 | 8.7 | 15.6 | 0.00 | 0.00 | 0.00 | 33 | 1004.3 |
| 20260504214524 | 64 | 39 | 7.0 | 15.6 | 0.00 | 0.00 | 0.00 | 33 | 1004.3 |
| 20260504213021 | 65 | 47 | 5.2 | 13.0 | 0.00 | 0.00 | 0.00 | 34 | 1004.3 |
| 20260504211521 | 65 | 62 | 7.8 | 12.2 | 0.00 | 0.00 | 0.00 | 33 | 1004.3 |
| 20260504210032 | 65 | 44 | 6.1 | 13.0 | 0.00 | 0.00 | 0.00 | 34 | 1004.5 |
| 20260504204529 | 65 | 5 | 7.8 | 14.8 | 0.00 | 0.00 | 0.00 | 33 | 1004.6 |
| 20260504203023 | 65 | 52 | 7.0 | 19.1 | 0.00 | 0.00 | 0.00 | 34 | 1004.6 |
| 20260504201514 | 65 | 48 | 4.3 | 13.9 | 0.00 | 0.00 | 0.00 | 34 | 1004.4 |
| 20260504200014 | 65 | 65 | 7.8 | 16.5 | 0.00 | 0.00 | 0.00 | 33 | 1004.3 |
| 20260504194514 | 64 | 56 | 8.7 | 19.1 | 0.00 | 0.00 | 0.00 | 33 | 1004.4 |
| 20260504193013 | 65 | 23 | 7.8 | 14.8 | 0.00 | 0.00 | 0.00 | 34 | 1004.5 |
| 20260504191512 | 64 | 59 | 8.7 | 14.8 | 0.00 | 0.00 | 0.00 | 33 | 1004.4 |
| 20260504190011 | 64 | 35 | 9.6 | 21.7 | 0.00 | 0.00 | 0.00 | 33 | 1004.5 |
| 20260504184510 | 65 | 57 | 7.8 | 16.5 | 0.00 | 0.00 | 0.00 | 32 | 1004.2 |
| 20260504183010 | 64 | 40 | 10.4 | 18.2 | 0.00 | 0.00 | 0.00 | 33 | 1004.1 |
| 20260504181508 | 63 | 54 | 7.8 | 19.1 | 0.00 | 0.00 | 0.00 | 34 | 1004.0 |
| 20260504180008 | 64 | 342 | 7.0 | 17.4 | 0.00 | 0.00 | 0.00 | 34 | 1003.9 |
| 20260504174508 | 64 | 16 | 8.7 | 16.5 | 0.00 | 0.00 | 0.00 | 35 | 1003.9 |
| 20260504173006 | 64 | 42 | 7.8 | 17.4 | 0.00 | 0.00 | 0.00 | 35 | 1003.5 |
| 20260504171504 | 63 | 42 | 7.8 | 18.2 | 0.00 | 0.00 | 0.00 | 37 | 1003.5 |
| 20260504081535 | 43 | 107 | 1.7 | 3.5 | 0.00 | 0.00 | 0.00 | 71 | 1003.7 |
| 20260504050009 | 52 | 108 | 0.0 | 1.7 | 0.00 | 0.00 | 0.00 | 56 | 1005.0 |
| 20260504044514 | 53 | 108 | 0.9 | 2.6 | 0.00 | 0.00 | 0.00 | 53 | 1005.0 |
| 20260504043013 | 55 | 108 | 0.0 | 1.7 | 0.00 | 0.00 | 0.00 | 51 | 1005.1 |
| 20260504041530 | 56 | 108 | 0.9 | 2.6 | 0.00 | 0.00 | 0.00 | 48 | 1005.2 |
| 20260504040015 | 58 | 108 | 0.0 | 1.7 | 0.00 | 0.00 | 0.00 | 47 | 1005.3 |
| 20260504034510 | 59 | 108 | 0.0 | 1.7 | 0.00 | 0.00 | 0.00 | 44 | 1005.2 |
| 20260504033007 | 59 | 108 | 0.0 | 2.6 | 0.00 | 0.00 | 0.00 | 44 | 1005.0 |
| 20260504031507 | 59 | 108 | 0.9 | 2.6 | 0.00 | 0.00 | 0.00 | 44 | 1004.9 |
| 20260504030006 | 60 | 109 | 0.9 | 4.3 | 0.00 | 0.00 | 0.00 | 43 | 1004.9 |
| 20260504024506 | 61 | 107 | 0.0 | 6.1 | 0.00 | 0.00 | 0.00 | 44 | 1005.1 |
| 20260504023006 | 61 | 92 | 1.7 | 8.7 | 0.00 | 0.00 | 0.00 | 43 | 1005.4 |
| 20260504021504 | 62 | 97 | 5.2 | 7.8 | 0.00 | 0.00 | 0.00 | 42 | 1005.4 |
| 20260504020008 | 63 | 97 | 2.6 | 7.0 | 0.00 | 0.00 | 0.00 | 42 | 1005.6 |
| 20260504014503 | 63 | 40 | 1.7 | 4.3 | 0.00 | 0.00 | 0.00 | 40 | 1005.7 |
| 20260504013003 | 64 | 71 | 5.2 | 9.6 | 0.00 | 0.00 | 0.00 | 40 | 1006.0 |